Location: Bemmer
(51.5498°N, 5.6249°E)
Time: 02:02:52
(UTC+00:00)

USA 305 - Pass Details

Date: 03 March 2021
Orbit: 567 x 574 km, 54.0° (Epoch: 13 April)

Event Time Altitude Azimuth Distance (km) Brightness Sun altitude
Rises 19:44:35 0° 283° (WNW) 2,781 7.9 -22.7°
Reaches altitude 10° 19:46:51 10° 286° (WNW) 1,881 6.7 -23.1°
Enters shadow 19:51:05 68° 6° (N) 619 3.0 -23.7°
